Overview Statistics Trail Chart Weather Telemetry Raw packets
 

This is the latest recevied weather packets stored in our database for station/object DB0OHL. If no packets are shown the sender has not sent any weather packets the latest 10 day(s).

<< 34 35 36 37 38 39 40 >>
Time Temp. Humidity Pressure Rain* Wind** Luminosity Snow
1777296337 17.22° C 51% 1021.5 hPa 0 mm - - -
1777295734 17.78° C 50% 1021.6 hPa 0 mm - - -
1777295132 17.22° C 50% 1021.7 hPa 0 mm - - -
1777294529 17.78° C 51% 1021.7 hPa 0 mm - - -
1777293927 16.67° C 49% 1021.7 hPa 0 mm - - -
1777293324 17.78° C 49% 1021.8 hPa 0 mm - - -
1777292722 17.78° C 51% 1021.9 hPa 0 mm - - -
1777292119 17.78° C 51% 1021.8 hPa 0 mm - - -
1777291517 16.67° C 51% 1021.9 hPa 0 mm - - -
1777290974 16.67° C 53% 1021.9 hPa 0 mm - - -
1777290372 16.67° C 54% 1022.1 hPa 0 mm - - -
1777289769 16.67° C 55% 1022.1 hPa 0 mm - - -
1777289167 16.11° C 54% 1022.2 hPa 0 mm - - -
1777288564 16.67° C 54% 1022.3 hPa 0 mm - - -
1777287962 15° C 56% 1022.3 hPa 0 mm - - -
1777287359 16.67° C 54% 1022.4 hPa 0 mm - - -
1777286756 15.56° C 56% 1022.5 hPa 0 mm - - -
1777286154 15.56° C 56% 1022.6 hPa 0 mm - - -
1777285551 15.56° C 57% 1022.6 hPa 0 mm - - -
1777284949 15° C 58% 1022.7 hPa 0 mm - - -
1777284346 15.56° C 56% 1022.9 hPa 0 mm - - -
1777283744 15.56° C 55% 1023 hPa 0 mm - - -
1777283141 16.67° C 53% 1023.2 hPa 0 mm - - -
1777282539 16.11° C 57% 1023.2 hPa 0 mm - - -
1777281936 16.11° C 58% 1023.3 hPa 0 mm - - -

* Rain latest hour (hover to see other rain measurements)
** Current wind speed in m/s (hover to see current wind gust speed)